Regional Weather Roundup
Issued by NWS

Home | Current Version | Previous Version | Graphics & Text | Print | Product List | Glossary On
Versions: 1 2 3 4 5 6 7 8 9 10 11 12 13 14 15 16 17 18 19 20 21 22 23 24 25 26 27 28 29 30 31 32 33 34 35 36 37 38 39 40 41 42 43 44 45 46 47 48 49 50
000
ASUS43 KMKX 230721
RWRWI

WISCONSIN REGIONAL WEATHER ROUNDUP
NATIONAL WEATHER SERVICE MILWAUKEE/SULLIVAN WI
200 AM CDT SAT MAY 23 2015

NOTE: "FAIR" INDICATES FEW OR NO CLOUDS BELOW 12,000 FEET WITH NO
SIGNIFICANT WEATHER AND/OR OBSTRUCTIONS TO VISIBILITY.

WIZ001-002-006>008-014>016-023>028-230800-
NORTHWEST WISCONSIN

CITY           SKY/WX    TMP DP  RH WIND       PRES   REMARKS
SUPERIOR ARPT  CLEAR     35  33  93 CALM      30.19S
ASHLAND        CLEAR     44  36  73 SW6       30.18S
HAYWARD        FAIR      42  38  85 CALM      30.22R
SIREN          FAIR      45  40  82 CALM      30.21S
CUMBERLAND     CLEAR     45  41  87 CALM      30.22S
RICE LAKE      CLEAR     45  43  93 CALM      30.24R
CHETEK         CLEAR     43  42  97 CALM      30.23S
LADYSMITH      CLEAR     43  40  89 CALM      30.25R
EAU CLAIRE     CLEAR     45  39  79 CALM      30.22S
MENOMONIE      PTCLDY    49  42  74 CALM      30.23S
NEW RICHMOND   PTCLDY    51  40  64 SE3       30.22R
OSCEOLA        PTCLDY    44  41  89 CALM      30.24R
$$

WIZ003>005-009-010-017-018-230800-
NORTH CENTRAL WISCONSIN

CITY           SKY/WX    TMP DP  RH WIND       PRES   REMARKS
MANITOWISH WTR CLEAR     40  35  84 CALM      30.22S
ARBOR VITAE    CLEAR     42  36  79 CALM      30.23S
WOODRUFF       CLEAR     42  36  79 CALM      30.23S
RHINELANDER    CLEAR     39  34  82 CALM      30.24S
EAGLE RIVER    CLEAR     38  31  76 CALM      30.22S
LAND O LAKES   CLEAR     33  32  96 CALM      30.23F
PHILLIPS       FAIR      39  37  91 CALM      30.23S
TOMAHAWK       CLEAR     34  32  92 CALM      30.25S
MEDFORD        CLEAR     41  37  86 CALM      30.24S
MERRILL        CLEAR     37  36  97 CALM      30.25S
$$

WIZ029-030-035-036-043>047-230800-
CENTRAL WISCONSIN

CITY           SKY/WX    TMP DP  RH WIND       PRES   REMARKS
WAUSAU         CLEAR     43  40  89 E7        30.24R
MOSINEE        CLEAR     46  41  81 CALM      30.26R
MARSHFIELD     CLEAR     50  37  61 CALM      30.24R
STEVENS POINT  CLEAR     45  37  75 CALM      30.26R
WAUPACA        CLEAR     49  34  56 S3        30.26S
WAUTOMA        PTCLDY    42  39  89 CALM      30.27S
WISC RAPIDS    PTCLDY    51  36  56 S6        30.26R
CAMP DOUGLAS   PTCLDY    41  41 100 E3        30.24R
$$

WIZ011>013-019>022-031-037>040-048>050-230800-
NORTHEAST WISCONSIN

CITY           SKY/WX    TMP DP  RH WIND       PRES   REMARKS
ANTIGO         CLEAR     39  34  80 CALM      30.26S
SHAWANO        CLEAR     44  37  74 CALM      30.27R
OCONTO         CLEAR     37  34  90 CALM      30.26S
STURGEON BAY   CLEAR     46  25  42 S8        30.29S
GREEN BAY      CLEAR     44  35  70 CALM      30.27R
MANITOWOC      CLEAR     47  29  49 CALM      30.28R
APPLETON       CLEAR     45  28  53 S7        30.27S
CLINTONVILLE   CLEAR     43  34  70 CALM      30.26S
OSHKOSH        PTCLDY    46  31  55 S6        30.26F
$$

WIZ032>034-041-042-053>061-230800-
SOUTHWEST WISCONSIN

CITY           SKY/WX    TMP DP  RH WIND       PRES   REMARKS
LA CROSSE      PTCLDY    52  44  74 SE6       30.23R
SPARTA         PTCLDY    40  38  95 CALM      30.25S
VIROQUA        PTCLDY    58  37  46 SE5       30.24S
BOSCOBEL       MOCLDY    50  45  83 N5        30.25R
PRAIRIE DU CHI MOCLDY    52  45  76 E3        30.23S
PLATTEVILLE    CLOUDY    56  41  56 SE8       30.25S
$$

WIZ056-057-062-063-064-067-068-230800-
SOUTH CENTRAL WISCONSIN

CITY           SKY/WX    TMP DP  RH WIND       PRES   REMARKS
REEDSBURG      MOCLDY    54  37  52 CALM      30.25S
BARABOO/DELLS  MOCLDY    54  32  43 S9        30.25S
LONE ROCK      CLOUDY    53  42  66 E6        30.26R
MINERAL POINT  CLOUDY    54  36  50 SE9       30.26S
MADISON        MOCLDY    54  31  41 S12       30.27S
MIDDLETON      MOCLDY    55  28  36 S7        30.28R
WATERTOWN      MOCLDY    45  31  58 CALM      30.28R
MONROE         PTCLDY    50  36  57 SE9       30.27S
JANESVILLE     PTCLDY    50  30  46 CALM      30.28S
$$

WIZ051-052-058>065-066-070>072-230800-
SOUTHEAST WISCONSIN

CITY           SKY/WX    TMP DP  RH WIND       PRES   REMARKS
MILWAUKEE      MOCLDY    50  30  46 S7        30.28S
WAUKESHA       MOCLDY    46  28  49 S5        30.29S
MILWAUKEE/TIMM MOCLDY    45  30  57 CALM      30.29S
RACINE         MOCLDY    47  32  56 SW6       30.30S
BURLINGTON     MOCLDY    42  33  72 CALM      30.29S
KENOSHA        PTCLDY    46  33  60 S5        30.29S
FOND DU LAC    PTCLDY    45  28  51 S3        30.27S
SHEBOYGAN      PTCLDY    42  30  62 SW7       30.28R
WEST BEND      PTCLDY    46  27  46 S3        30.28S
JUNEAU         MOCLDY    46  29  52 SW3       30.29S
$$

LSZ147-162-230800-
LAKE SUPERIOR

STATION/POSITION TIME  TEMP    WIND        PRES    WAVE
                       AIR SEA DIR/SP/G            HT/PER
                 (UTC) (F)     (DEG/KT/KT) (MB)    (FT/S)
W MID LAKE BUOY  0650   42 36  210/ 10/ 10   N/A     0
DEVILS ISLAND    0700   40     240/ 10/ 12   N/A
PORT WING        0600   41     170/  3/  4   N/A
SAXON HARBOR     0640   56     170/  5/  8   N/A
$$

LMZ867-665-643>646-230800-
LAKE MICHIGAN

STATION/POSITION TIME  TEMP    WIND        PRES    WAVE
                       AIR SEA DIR/SP/G            HT/PER
                 (UTC) (F)     (DEG/KT/KT) (MB)    (FT/S)
CHAMBERS ISLAND  0600   44     150/  3/  4   N/A
N MID LAKE BUOY  0650   41 36  190/  6/  6   N/A     0
NORTHPORT PIER   0600   45     160/  3/ 16   N/A
SISTER BAY       0602   45     180/  6/  8   N/A
KEWAUNEE LAKESHO 0600   47     200/  2/  5   N/A
SHEBOYGAN LAKESH 0700   52     230/ 11/ 13   N/A
PORT WASHINGTON  0600   49     260/  4/  5   N/A
ATWATER BUOY     0700   50 45  190/  6/  6   N/A
MILWAUKEE LAKESH 0700   53     220/  4/  5   N/A
S MID LAKE BUOY  0650   47 38  190/ 10/ 12   N/A     0
KENOSHA   LAKESH 0700   54     200/  6/  9   N/A
$$

TC  - TEMPERATURE IN CELSIUS
VSB - VISIBILITY IN STATUTE MILES
WCI - WIND CHILL INDEX
HX  - HEAT INDEX



USA.gov is the U.S. government's official web portal to all federal, state and local government web resources and services.